Back to catalog

STARLINK-31148

AliveCommunicationsVLEO
NORAD 58741·PAYLOAD·🇺🇸 United States

Launched Jan 7, 2024 from Cape Canaveral Space Force Station

Loading…

Next Passes (next 24 hours)

TLE

FreshSource: CelesTrak SupGP

Epoch: Sep 14, 2026, 21:29 UTC

1 58741C 24005P   26257.89562500  .00037872  00000+0  13720-2 0  2571
2 58741  43.0001 230.9634 0001108 257.7418  90.9920 15.27552309    15

Track STARLINK-31148 in real time with AllMySat

Download on the App Store